Location: Dal�� Lhota
(48.7500°N, 14.0167°E)
Time: 01:37:28
(UTC+00:00)

COSMOS 2406 - Pass Details

Date: 24 September 2020
Orbit: 844 x 863 km, 71.0° (Epoch: 29 October)

Event Time Altitude Azimuth Distance (km) Brightness Sun altitude
Rises 19:38:32 0° 328° (NNW) 3,414 7.4 -26.2°
Reaches altitude 10° 19:41:03 10° 323° (NW) 2,475 6.5 -26.6°
Maximum altitude 19:46:29 48° 250° (WSW) 1,093 3.9 -27.3°
Enters shadow 19:47:54 40° 210° (SSW) 1,239 3.9 -27.5°
